| time (UTC) | temp C | wind direction | speed KPH | gust KPH | rain 1hr cm | rain 24hr cm | rain mn cm | humidity % | barometer mb |
| 20260902070256 | 30 | 183 | 4.8 | 6.4 | 0.00 | 0.00 | 0.00 | 54 | 1016.5 |
| 20260902065755 | 30 | 172 | 8.0 | 11.3 | 0.00 | 0.00 | 0.00 | 53 | 1016.4 |
| 20260902065250 | 30 | 122 | 8.0 | 9.7 | 0.00 | 0.00 | 0.00 | 53 | 1016.7 |
| 20260902064746 | 30 | 39 | 6.4 | 11.3 | 0.00 | 0.00 | 0.00 | 53 | 1016.6 |
| 20260902064242 | 30 | 178 | 6.4 | 6.4 | 0.00 | 0.00 | 0.00 | 53 | 1016.5 |
| 20260902063737 | 30 | 89 | 8.0 | 9.7 | 0.00 | 0.00 | 0.00 | 53 | 1016.7 |
| 20260902063232 | 30 | 319 | 3.2 | 3.2 | 0.00 | 0.00 | 0.00 | 53 | 1016.4 |
| 20260902062731 | 29 | 195 | 8.0 | 9.7 | 0.00 | 0.00 | 0.00 | 54 | 1016.6 |
| 20260902062226 | 29 | 127 | 9.7 | 17.7 | 0.00 | 0.00 | 0.00 | 54 | 1016.7 |
| 20260902061725 | 29 | 147 | 3.2 | 4.8 | 0.00 | 0.00 | 0.00 | 54 | 1016.5 |
| 20260902061221 | 29 | 174 | 6.4 | 6.4 | 0.00 | 0.00 | 0.00 | 54 | 1016.7 |
| 20260902060717 | 29 | 92 | 4.8 | 4.8 | 0.00 | 0.00 | 0.00 | 54 | 1016.5 |
| 20260902060213 | 29 | 300 | 1.6 | 1.6 | 0.00 | 0.00 | 0.00 | 54 | 1016.5 |
| 20260902055709 | 29 | 81 | 6.4 | 9.7 | 0.00 | 0.00 | 0.00 | 53 | 1016.5 |
| 20260902055204 | 29 | 157 | 6.4 | 9.7 | 0.00 | 0.00 | 0.00 | 53 | 1016.5 |
| 20260902054659 | 29 | 118 | 4.8 | 4.8 | 0.00 | 0.00 | 0.00 | 53 | 1016.5 |
| 20260902054155 | 29 | 48 | 1.6 | 3.2 | 0.00 | 0.00 | 0.00 | 53 | 1016.3 |
| 20260902053650 | 29 | 95 | 4.8 | 6.4 | 0.00 | 0.00 | 0.00 | 53 | 1016.5 |
| 20260902053150 | 29 | 137 | 4.8 | 6.4 | 0.00 | 0.00 | 0.00 | 52 | 1016.6 |
| 20260902052649 | 29 | 158 | 3.2 | 3.2 | 0.00 | 0.00 | 0.00 | 52 | 1016.5 |
| 20260902052145 | 29 | 77 | 4.8 | 4.8 | 0.00 | 0.00 | 0.00 | 52 | 1016.6 |
| 20260902051644 | 29 | 348 | 0.0 | 1.6 | 0.00 | 0.00 | 0.00 | 53 | 1016.7 |
| 20260902051139 | 29 | 80 | 1.6 | 1.6 | 0.00 | 0.00 | 0.00 | 52 | 1016.6 |
| 20260902050633 | 29 | 43 | 0.0 | 0.0 | 0.00 | 0.00 | 0.00 | 52 | 1016.7 |
| 20260902050129 | 29 | 8 | 1.6 | 1.6 | 0.00 | 0.00 | 0.00 | 52 | 1016.6 |
| 20260902045624 | 29 | 92 | 1.6 | 3.2 | 0.00 | 0.00 | 0.00 | 52 | 1016.7 |
| 20260902045120 | 29 | 22 | 0.0 | 1.6 | 0.00 | 0.00 | 0.00 | 52 | 1016.6 |
| 20260902044615 | 29 | 10 | 3.2 | 3.2 | 0.00 | 0.00 | 0.00 | 51 | 1016.6 |
| 20260902044111 | 30 | 172 | 1.6 | 1.6 | 0.00 | 0.00 | 0.00 | 51 | 1016.6 |
| 20260902043606 | 30 | 138 | 3.2 | 3.2 | 0.00 | 0.00 | 0.00 | 51 | 1016.6 |
| 20260902043106 | 30 | 143 | 1.6 | 3.2 | 0.00 | 0.00 | 0.00 | 50 | 1016.5 |
| 20260902042600 | 30 | 182 | 4.8 | 4.8 | 0.00 | 0.00 | 0.00 | 50 | 1016.4 |
| 20260902042055 | 30 | 142 | 4.8 | 6.4 | 0.00 | 0.00 | 0.00 | 49 | 1016.4 |
| 20260902041554 | 30 | 196 | 6.4 | 6.4 | 0.00 | 0.00 | 0.00 | 49 | 1016.3 |
| 20260902041049 | 30 | 79 | 6.4 | 9.7 | 0.00 | 0.00 | 0.00 | 49 | 1016.1 |
| 20260902040543 | 30 | 18 | 0.0 | 1.6 | 0.00 | 0.00 | 0.00 | 48 | 1016.4 |
| 20260902040038 | 30 | 142 | 8.0 | 9.7 | 0.00 | 0.00 | 0.00 | 47 | 1016.2 |
| 20260902035531 | 31 | 179 | 6.4 | 6.4 | 0.00 | 0.00 | 0.00 | 47 | 1016.4 |
| 20260902035027 | 31 | 131 | 6.4 | 6.4 | 0.00 | 0.00 | 0.00 | 46 | 1016.3 |
| 20260902034526 | 31 | 45 | 4.8 | 4.8 | 0.00 | 0.00 | 0.00 | 46 | 1016.1 |
| 20260902034025 | 31 | 35 | 1.6 | 3.2 | 0.00 | 0.00 | 0.00 | 45 | 1016.2 |
| 20260902033525 | 31 | 20 | 3.2 | 3.2 | 0.00 | 0.00 | 0.00 | 45 | 1016.3 |
| 20260902033020 | 31 | 45 | 3.2 | 3.2 | 0.00 | 0.00 | 0.00 | 45 | 1016.4 |
| 20260902032513 | 31 | 82 | 4.8 | 6.4 | 0.00 | 0.00 | 0.00 | 45 | 1016.1 |
| 20260902032009 | 31 | 95 | 4.8 | 4.8 | 0.00 | 0.00 | 0.00 | 45 | 1016.0 |
| 20260902031508 | 31 | 57 | 1.6 | 1.6 | 0.00 | 0.00 | 0.00 | 45 | 1016.2 |
| 20260902031005 | 31 | 70 | 4.8 | 6.4 | 0.00 | 0.00 | 0.00 | 45 | 1015.8 |
| 20260902030505 | 31 | 59 | 3.2 | 3.2 | 0.00 | 0.00 | 0.00 | 44 | 1015.8 |
| 20260902030004 | 32 | 36 | 3.2 | 3.2 | 0.00 | 0.00 | 0.00 | 44 | 1015.8 |
| 20260902025459 | 32 | 46 | 1.6 | 1.6 | 0.00 | 0.00 | 0.00 | 44 | 1015.8 |
| 20260902024954 | 32 | 28 | 0.0 | 0.0 | 0.00 | 0.00 | 0.00 | 44 | 1015.8 |
| 20260902024450 | 32 | 311 | 3.2 | 3.2 | 0.00 | 0.00 | 0.00 | 44 | 1015.7 |
| 20260902023949 | 32 | 46 | 0.0 | 0.0 | 0.00 | 0.00 | 0.00 | 44 | 1015.7 |
| 20260902023446 | 32 | 123 | 3.2 | 4.8 | 0.00 | 0.00 | 0.00 | 43 | 1015.7 |
| 20260902022945 | 32 | 22 | 0.0 | 1.6 | 0.00 | 0.00 | 0.00 | 43 | 1015.4 |
| 20260902022440 | 32 | 23 | 0.0 | 0.0 | 0.00 | 0.00 | 0.00 | 43 | 1015.5 |
| 20260902021936 | 32 | 33 | 0.0 | 1.6 | 0.00 | 0.00 | 0.00 | 42 | 1015.3 |
| 20260902021436 | 32 | 22 | 0.0 | 1.6 | 0.00 | 0.00 | 0.00 | 42 | 1015.3 |
| 20260902020932 | 32 | 50 | 1.6 | 3.2 | 0.00 | 0.00 | 0.00 | 41 | 1015.2 |
| 20260902020429 | 32 | 21 | 0.0 | 0.0 | 0.00 | 0.00 | 0.00 | 42 | 1015.3 |
| 20260902015924 | 32 | 92 | 3.2 | 3.2 | 0.00 | 0.00 | 0.00 | 42 | 1015.2 |
| 20260902015420 | 32 | 26 | 0.0 | 1.6 | 0.00 | 0.00 | 0.00 | 42 | 1015.1 |
| 20260902014915 | 32 | 24 | 0.0 | 0.0 | 0.00 | 0.00 | 0.00 | 42 | 1015.1 |
| 20260902014412 | 33 | 20 | 0.0 | 0.0 | 0.00 | 0.00 | 0.00 | 42 | 1015.1 |
| 20260902013910 | 33 | 13 | 0.0 | 0.0 | 0.00 | 0.00 | 0.00 | 41 | 1014.9 |
| 20260902013406 | 33 | 359 | 0.0 | 0.0 | 0.00 | 0.00 | 0.00 | 41 | 1015.0 |
| 20260902012901 | 33 | 8 | 0.0 | 1.6 | 0.00 | 0.00 | 0.00 | 39 | 1014.9 |
| 20260902012357 | 33 | 328 | 0.0 | 1.6 | 0.00 | 0.00 | 0.00 | 39 | 1015.0 |
| 20260902011853 | 33 | 10 | 0.0 | 0.0 | 0.00 | 0.00 | 0.00 | 39 | 1014.9 |
| 20260902011353 | 33 | 57 | 1.6 | 1.6 | 0.00 | 0.00 | 0.00 | 39 | 1014.9 |
| 20260902010852 | 33 | 23 | 0.0 | 1.6 | 0.00 | 0.00 | 0.00 | 38 | 1014.9 |
| 20260902010347 | 34 | 19 | 0.0 | 0.0 | 0.00 | 0.00 | 0.00 | 38 | 1014.7 |
| 20260902005846 | 34 | 13 | 0.0 | 1.6 | 0.00 | 0.00 | 0.00 | 38 | 1014.8 |
| 20260902005340 | 34 | 7 | 0.0 | 0.0 | 0.00 | 0.00 | 0.00 | 38 | 1014.8 |
| 20260902004836 | 35 | 9 | 0.0 | 0.0 | 0.00 | 0.00 | 0.00 | 37 | 1014.8 |
| 20260902004336 | 35 | 42 | 0.0 | 0.0 | 0.00 | 0.00 | 0.00 | 37 | 1014.7 |
| 20260902003831 | 35 | 57 | 0.0 | 1.6 | 0.00 | 0.00 | 0.00 | 37 | 1014.8 |
| 20260902003326 | 35 | 4 | 0.0 | 1.6 | 0.00 | 0.00 | 0.00 | 36 | 1014.9 |
| 20260902002822 | 35 | 2 | 1.6 | 1.6 | 0.00 | 0.00 | 0.00 | 35 | 1014.9 |
| 20260902002321 | 35 | 26 | 1.6 | 1.6 | 0.00 | 0.00 | 0.00 | 35 | 1014.9 |
| 20260902001817 | 36 | 182 | 4.8 | 4.8 | 0.00 | 0.00 | 0.00 | 35 | 1014.8 |
| 20260902001312 | 36 | 54 | 1.6 | 1.6 | 0.00 | 0.00 | 0.00 | 34 | 1014.8 |
| 20260902000812 | 36 | 13 | 3.2 | 3.2 | 0.00 | 0.00 | 0.00 | 34 | 1015.1 |
| 20260902000307 | 36 | 98 | 4.8 | 4.8 | 0.00 | 0.00 | 0.00 | 34 | 1014.9 |
| 20260901235802 | 36 | 6 | 0.0 | 1.6 | 0.00 | 0.00 | 0.00 | 34 | 1014.9 |
| 20260901235256 | 36 | 169 | 6.4 | 6.4 | 0.00 | 0.00 | 0.00 | 34 | 1014.9 |
| 20260901234756 | 37 | 101 | 3.2 | 4.8 | 0.00 | 0.00 | 0.00 | 33 | 1015.1 |
| 20260901234251 | 37 | 236 | 1.6 | 3.2 | 0.00 | 0.00 | 0.00 | 33 | 1015.0 |
| 20260901233746 | 37 | 228 | 6.4 | 6.4 | 0.00 | 0.00 | 0.00 | 33 | 1015.1 |
| 20260901233242 | 37 | 356 | 1.6 | 1.6 | 0.00 | 0.00 | 0.00 | 33 | 1015.2 |
| 20260901232742 | 37 | 196 | 4.8 | 6.4 | 0.00 | 0.00 | 0.00 | 33 | 1015.2 |
| 20260901232237 | 37 | 266 | 4.8 | 4.8 | 0.00 | 0.00 | 0.00 | 33 | 1015.2 |
| 20260901231734 | 37 | 307 | 3.2 | 3.2 | 0.00 | 0.00 | 0.00 | 33 | 1015.3 |
| 20260901231230 | 37 | 193 | 6.4 | 9.7 | 0.00 | 0.00 | 0.00 | 33 | 1015.1 |
| 20260901230726 | 37 | 224 | 3.2 | 9.7 | 0.00 | 0.00 | 0.00 | 33 | 1015.4 |
| 20260901230225 | 37 | 290 | 3.2 | 3.2 | 0.00 | 0.00 | 0.00 | 32 | 1015.2 |
| 20260901225720 | 37 | 194 | 9.7 | 11.3 | 0.00 | 0.00 | 0.00 | 31 | 1015.2 |
| 20260901225214 | 37 | 122 | 9.7 | 12.9 | 0.00 | 0.00 | 0.00 | 32 | 1015.3 |
| 20260901224711 | 37 | 9 | 0.0 | 1.6 | 0.00 | 0.00 | 0.00 | 33 | 1015.4 |
| 20260901224206 | 36 | 33 | 1.6 | 3.2 | 0.00 | 0.00 | 0.00 | 33 | 1015.4 |
| 20260901223702 | 36 | 160 | 4.8 | 4.8 | 0.00 | 0.00 | 0.00 | 34 | 1015.4 |
| 20260901223157 | 37 | 214 | 3.2 | 6.4 | 0.00 | 0.00 | 0.00 | 33 | 1015.4 |
| 20260901222653 | 37 | 162 | 6.4 | 6.4 | 0.00 | 0.00 | 0.00 | 32 | 1015.3 |
| 20260901222149 | 37 | 196 | 3.2 | 4.8 | 0.00 | 0.00 | 0.00 | 33 | 1015.4 |
| 20260901221645 | 37 | 84 | 6.4 | 9.7 | 0.00 | 0.00 | 0.00 | 32 | 1015.3 |
| 20260901221141 | 37 | 92 | 3.2 | 3.2 | 0.00 | 0.00 | 0.00 | 33 | 1015.2 |
| 20260901220639 | 37 | 189 | 6.4 | 9.7 | 0.00 | 0.00 | 0.00 | 32 | 1015.4 |
| 20260901220139 | 37 | 104 | 3.2 | 6.4 | 0.00 | 0.00 | 0.00 | 32 | 1015.2 |
| 20260901215637 | 38 | 346 | 3.2 | 4.8 | 0.00 | 0.00 | 0.00 | 31 | 1015.4 |
| 20260901215132 | 37 | 84 | 3.2 | 6.4 | 0.00 | 0.00 | 0.00 | 31 | 1015.5 |
| 20260901214630 | 37 | 109 | 3.2 | 4.8 | 0.00 | 0.00 | 0.00 | 32 | 1015.4 |
| 20260901214125 | 37 | 115 | 4.8 | 4.8 | 0.00 | 0.00 | 0.00 | 32 | 1015.3 |
| 20260901213624 | 38 | 101 | 9.7 | 14.5 | 0.00 | 0.00 | 0.00 | 31 | 1015.3 |
| 20260901213119 | 37 | 79 | 3.2 | 3.2 | 0.00 | 0.00 | 0.00 | 32 | 1015.3 |
| 20260901212619 | 37 | 99 | 8.0 | 11.3 | 0.00 | 0.00 | 0.00 | 32 | 1015.3 |
| 20260901212115 | 37 | 109 | 3.2 | 4.8 | 0.00 | 0.00 | 0.00 | 33 | 1015.4 |
| 20260901211610 | 37 | 96 | 4.8 | 4.8 | 0.00 | 0.00 | 0.00 | 33 | 1015.5 |
| 20260901211107 | 37 | 155 | 6.4 | 6.4 | 0.00 | 0.00 | 0.00 | 32 | 1015.5 |
| 20260901210601 | 38 | 136 | 4.8 | 6.4 | 0.00 | 0.00 | 0.00 | 32 | 1015.5 |
| 20260901210058 | 38 | 189 | 4.8 | 6.4 | 0.00 | 0.00 | 0.00 | 30 | 1015.9 |
| 20260901205554 | 38 | 337 | 4.8 | 4.8 | 0.00 | 0.00 | 0.00 | 31 | 1015.9 |
| 20260901205053 | 38 | 196 | 6.4 | 6.4 | 0.00 | 0.00 | 0.00 | 31 | 1015.8 |
| 20260901204549 | 38 | 199 | 9.7 | 12.9 | 0.00 | 0.00 | 0.00 | 31 | 1015.9 |
| 20260901204044 | 38 | 272 | 8.0 | 12.9 | 0.00 | 0.00 | 0.00 | 31 | 1015.9 |
| 20260901203544 | 38 | 202 | 11.3 | 12.9 | 0.00 | 0.00 | 0.00 | 31 | 1015.9 |
| 20260901203039 | 38 | 96 | 1.6 | 3.2 | 0.00 | 0.00 | 0.00 | 32 | 1016.1 |
| 20260901202534 | 38 | 155 | 8.0 | 11.3 | 0.00 | 0.00 | 0.00 | 31 | 1016.2 |
| 20260901202030 | 37 | 280 | 4.8 | 4.8 | 0.00 | 0.00 | 0.00 | 32 | 1016.3 |
| 20260901201525 | 37 | 13 | 0.0 | 1.6 | 0.00 | 0.00 | 0.00 | 33 | 1016.2 |
| 20260901201020 | 37 | 50 | 8.0 | 12.9 | 0.00 | 0.00 | 0.00 | 33 | 1016.3 |
| 20260901200519 | 37 | 63 | 3.2 | 3.2 | 0.00 | 0.00 | 0.00 | 33 | 1016.3 |
| 20260901200019 | 38 | 351 | 3.2 | 4.8 | 0.00 | 0.00 | 0.00 | 32 | 1016.2 |
| 20260901195517 | 37 | 275 | 3.2 | 3.2 | 0.00 | 0.00 | 0.00 | 33 | 1016.4 |
| 20260901195017 | 38 | 39 | 1.6 | 3.2 | 0.00 | 0.00 | 0.00 | 33 | 1016.6 |
| 20260901194512 | 37 | 337 | 3.2 | 3.2 | 0.00 | 0.00 | 0.00 | 33 | 1016.4 |
| 20260901194008 | 37 | 219 | 8.0 | 9.7 | 0.00 | 0.00 | 0.00 | 33 | 1016.7 |
| 20260901193507 | 37 | 185 | 3.2 | 4.8 | 0.00 | 0.00 | 0.00 | 34 | 1016.8 |
| 20260901193002 | 37 | 162 | 8.0 | 9.7 | 0.00 | 0.00 | 0.00 | 33 | 1016.7 |
| 20260901192457 | 37 | 3 | 3.2 | 3.2 | 0.00 | 0.00 | 0.00 | 34 | 1016.9 |
| 20260901191954 | 37 | 24 | 1.6 | 1.6 | 0.00 | 0.00 | 0.00 | 34 | 1017.0 |
| 20260901191449 | 37 | 222 | 3.2 | 3.2 | 0.00 | 0.00 | 0.00 | 34 | 1017.0 |
| 20260901190945 | 37 | 304 | 4.8 | 4.8 | 0.00 | 0.00 | 0.00 | 34 | 1017.0 |
| 20260901190440 | 37 | 230 | 11.3 | 14.5 | 0.00 | 0.00 | 0.00 | 33 | 1016.9 |
| 20260901185937 | 36 | 31 | 0.0 | 0.0 | 0.00 | 0.00 | 0.00 | 35 | 1017.0 |
| 20260901185437 | 37 | 99 | 6.4 | 6.4 | 0.00 | 0.00 | 0.00 | 35 | 1017.4 |
| 20260901184937 | 37 | 177 | 3.2 | 3.2 | 0.00 | 0.00 | 0.00 | 35 | 1017.2 |
| 20260901184432 | 37 | 219 | 8.0 | 11.3 | 0.00 | 0.00 | 0.00 | 34 | 1017.2 |
| 20260901183927 | 37 | 358 | 3.2 | 4.8 | 0.00 | 0.00 | 0.00 | 35 | 1017.4 |
| 20260901183427 | 36 | 289 | 6.4 | 9.7 | 0.00 | 0.00 | 0.00 | 35 | 1017.4 |
| 20260901182923 | 36 | 9 | 0.0 | 1.6 | 0.00 | 0.00 | 0.00 | 36 | 1017.6 |
| 20260901182418 | 36 | 8 | 1.6 | 1.6 | 0.00 | 0.00 | 0.00 | 35 | 1017.6 |
| 20260901181913 | 37 | 343 | 3.2 | 4.8 | 0.00 | 0.00 | 0.00 | 35 | 1017.9 |
| 20260901181409 | 36 | 79 | 6.4 | 9.7 | 0.00 | 0.00 | 0.00 | 36 | 1017.6 |
| 20260901180907 | 36 | 354 | 3.2 | 3.2 | 0.00 | 0.00 | 0.00 | 36 | 1017.9 |
| 20260901180406 | 37 | 277 | 6.4 | 6.4 | 0.00 | 0.00 | 0.00 | 36 | 1017.8 |
| 20260901175905 | 36 | 329 | 1.6 | 3.2 | 0.00 | 0.00 | 0.00 | 37 | 1017.9 |
| 20260901175359 | 36 | 236 | 1.6 | 4.8 | 0.00 | 0.00 | 0.00 | 37 | 1018.1 |
| 20260901174855 | 36 | 280 | 1.6 | 3.2 | 0.00 | 0.00 | 0.00 | 38 | 1018.3 |
| 20260901174351 | 36 | 232 | 1.6 | 3.2 | 0.00 | 0.00 | 0.00 | 38 | 1018.5 |
| 20260901173846 | 36 | 260 | 11.3 | 16.1 | 0.00 | 0.00 | 0.00 | 38 | 1018.2 |
| 20260901173341 | 36 | 162 | 9.7 | 12.9 | 0.00 | 0.00 | 0.00 | 39 | 1018.4 |
| 20260901172837 | 36 | 308 | 3.2 | 4.8 | 0.00 | 0.00 | 0.00 | 40 | 1018.6 |
| 20260901172336 | 35 | 197 | 9.7 | 11.3 | 0.00 | 0.00 | 0.00 | 39 | 1018.5 |
| 20260901171835 | 35 | 150 | 4.8 | 9.7 | 0.00 | 0.00 | 0.00 | 41 | 1018.7 |
| 20260901171334 | 36 | 218 | 9.7 | 12.9 | 0.00 | 0.00 | 0.00 | 41 | 1018.8 |
| 20260901170833 | 36 | 5 | 1.6 | 3.2 | 0.00 | 0.00 | 0.00 | 41 | 1018.9 |
| 20260901170328 | 36 | 207 | 4.8 | 9.7 | 0.00 | 0.00 | 0.00 | 41 | 1018.8 |
| 20260901165827 | 36 | 338 | 3.2 | 3.2 | 0.00 | 0.00 | 0.00 | 40 | 1019.0 |
| 20260901165321 | 35 | 25 | 4.8 | 6.4 | 0.00 | 0.00 | 0.00 | 42 | 1019.0 |
| 20260901164818 | 35 | 273 | 4.8 | 6.4 | 0.00 | 0.00 | 0.00 | 43 | 1019.0 |
| 20260901164313 | 35 | 101 | 6.4 | 6.4 | 0.00 | 0.00 | 0.00 | 41 | 1019.1 |
| 20260901163809 | 35 | 256 | 6.4 | 9.7 | 0.00 | 0.00 | 0.00 | 43 | 1019.2 |
| 20260901163308 | 34 | 340 | 4.8 | 9.7 | 0.00 | 0.00 | 0.00 | 44 | 1019.1 |
| 20260901162803 | 35 | 174 | 11.3 | 14.5 | 0.00 | 0.00 | 0.00 | 43 | 1019.3 |
| 20260901162306 | 35 | 249 | 8.0 | 11.3 | 0.00 | 0.00 | 0.00 | 44 | 1019.0 |
| 20260901161803 | 34 | 30 | 3.2 | 3.2 | 0.00 | 0.00 | 0.00 | 45 | 1019.1 |
| 20260901161302 | 33 | 181 | 3.2 | 3.2 | 0.00 | 0.00 | 0.00 | 46 | 1019.2 |
| 20260901160758 | 33 | 221 | 4.8 | 4.8 | 0.00 | 0.00 | 0.00 | 47 | 1019.1 |
| 20260901160254 | 33 | 248 | 12.9 | 16.1 | 0.00 | 0.00 | 0.00 | 46 | 1019.1 |
| 20260901155753 | 33 | 330 | 3.2 | 3.2 | 0.00 | 0.00 | 0.00 | 46 | 1019.3 |
| 20260901155248 | 33 | 91 | 6.4 | 6.4 | 0.00 | 0.00 | 0.00 | 46 | 1019.2 |
| 20260901154743 | 33 | 213 | 9.7 | 12.9 | 0.00 | 0.00 | 0.00 | 47 | 1019.3 |
| 20260901154238 | 33 | 197 | 11.3 | 16.1 | 0.00 | 0.00 | 0.00 | 47 | 1019.2 |
| 20260901153733 | 33 | 161 | 8.0 | 11.3 | 0.00 | 0.00 | 0.00 | 47 | 1019.1 |
| 20260901153232 | 33 | 63 | 1.6 | 3.2 | 0.00 | 0.00 | 0.00 | 47 | 1019.0 |
| 20260901152732 | 32 | 130 | 6.4 | 11.3 | 0.00 | 0.00 | 0.00 | 47 | 1019.2 |
| 20260901152231 | 32 | 209 | 8.0 | 12.9 | 0.00 | 0.00 | 0.00 | 49 | 1019.2 |
| 20260901151727 | 32 | 217 | 1.6 | 1.6 | 0.00 | 0.00 | 0.00 | 50 | 1019.3 |
| 20260901151227 | 31 | 127 | 9.7 | 16.1 | 0.00 | 0.00 | 0.00 | 50 | 1019.3 |
| 20260901150726 | 32 | 198 | 4.8 | 6.4 | 0.00 | 0.00 | 0.00 | 49 | 1019.3 |
| 20260901150224 | 32 | 6 | 4.8 | 4.8 | 0.00 | 0.00 | 0.00 | 50 | 1019.3 |
| 20260901145722 | 32 | 145 | 14.5 | 20.9 | 0.00 | 0.00 | 0.00 | 49 | 1019.1 |
| 20260901145216 | 32 | 227 | 14.5 | 17.7 | 0.00 | 0.00 | 0.00 | 49 | 1019.4 |
| 20260901144712 | 31 | 254 | 4.8 | 6.4 | 0.00 | 0.00 | 0.00 | 50 | 1019.3 |
| 20260901144207 | 32 | 206 | 12.9 | 17.7 | 0.00 | 0.00 | 0.00 | 49 | 1019.2 |
| 20260901143702 | 31 | 201 | 3.2 | 4.8 | 0.00 | 0.00 | 0.00 | 50 | 1019.2 |
| 20260901143159 | 31 | 17 | 4.8 | 6.4 | 0.00 | 0.00 | 0.00 | 51 | 1019.3 |
| 20260901142655 | 30 | 182 | 14.5 | 17.7 | 0.00 | 0.00 | 0.00 | 51 | 1019.2 |
| 20260901142154 | 30 | 198 | 4.8 | 11.3 | 0.00 | 0.00 | 0.00 | 52 | 1019.2 |
| 20260901141649 | 30 | 210 | 12.9 | 16.1 | 0.00 | 0.00 | 0.00 | 52 | 1019.2 |
| 20260901141148 | 30 | 197 | 6.4 | 9.7 | 0.00 | 0.00 | 0.00 | 53 | 1019.2 |
| 20260901140647 | 30 | 331 | 1.6 | 1.6 | 0.00 | 0.00 | 0.00 | 54 | 1019.2 |
| 20260901140146 | 29 | 276 | 4.8 | 9.7 | 0.00 | 0.00 | 0.00 | 54 | 1019.4 |
| 20260901135641 | 29 | 183 | 6.4 | 6.4 | 0.00 | 0.00 | 0.00 | 55 | 1019.3 |
| 20260901135136 | 29 | 216 | 8.0 | 11.3 | 0.00 | 0.00 | 0.00 | 55 | 1019.4 |
| 20260901134632 | 29 | 19 | 1.6 | 3.2 | 0.00 | 0.00 | 0.00 | 55 | 1019.3 |
| 20260901134127 | 28 | 216 | 3.2 | 4.8 | 0.00 | 0.00 | 0.00 | 55 | 1019.2 |
| 20260901133626 | 28 | 128 | 11.3 | 12.9 | 0.00 | 0.00 | 0.00 | 55 | 1019.5 |
| 20260901133125 | 28 | 116 | 8.0 | 9.7 | 0.00 | 0.00 | 0.00 | 55 | 1019.4 |
| 20260901132620 | 28 | 85 | 4.8 | 4.8 | 0.00 | 0.00 | 0.00 | 55 | 1019.3 |
| 20260901132119 | 28 | 212 | 3.2 | 4.8 | 0.00 | 0.00 | 0.00 | 55 | 1019.2 |
| 20260901131619 | 28 | 219 | 3.2 | 6.4 | 0.00 | 0.00 | 0.00 | 56 | 1019.2 |
| 20260901131114 | 28 | 176 | 4.8 | 4.8 | 0.00 | 0.00 | 0.00 | 56 | 1019.0 |
| 20260901130609 | 27 | 349 | 3.2 | 4.8 | 0.00 | 0.00 | 0.00 | 56 | 1019.1 |
| 20260901130107 | 27 | 339 | 3.2 | 3.2 | 0.00 | 0.00 | 0.00 | 56 | 1019.0 |
| 20260901125607 | 27 | 195 | 4.8 | 4.8 | 0.00 | 0.00 | 0.00 | 56 | 1018.9 |
| 20260901125102 | 27 | 216 | 3.2 | 3.2 | 0.00 | 0.00 | 0.00 | 56 | 1019.0 |
| 20260901124601 | 27 | 187 | 4.8 | 6.4 | 0.00 | 0.00 | 0.00 | 56 | 1019.1 |
| 20260901124056 | 27 | 80 | 3.2 | 4.8 | 0.00 | 0.00 | 0.00 | 56 | 1018.9 |
| 20260901123551 | 27 | 204 | 6.4 | 9.7 | 0.00 | 0.00 | 0.00 | 56 | 1018.9 |
| 20260901123051 | 27 | 182 | 4.8 | 6.4 | 0.00 | 0.00 | 0.00 | 56 | 1018.8 |
| 20260901122549 | 27 | 180 | 3.2 | 4.8 | 0.00 | 0.00 | 0.00 | 56 | 1018.7 |
| 20260901122049 | 27 | 43 | 6.4 | 11.3 | 0.00 | 0.00 | 0.00 | 56 | 1018.6 |
| 20260901121549 | 27 | 303 | 6.4 | 9.7 | 0.00 | 0.00 | 0.00 | 55 | 1018.6 |
| 20260901121045 | 27 | 156 | 4.8 | 4.8 | 0.00 | 0.00 | 0.00 | 55 | 1018.7 |
| 20260901120544 | 27 | 335 | 4.8 | 6.4 | 0.00 | 0.00 | 0.00 | 55 | 1018.4 |
| 20260901120040 | 27 | 30 | 1.6 | 1.6 | 0.00 | 0.00 | 0.00 | 55 | 1018.5 |
| 20260901115535 | 27 | 48 | 1.6 | 1.6 | 0.00 | 0.00 | 0.00 | 55 | 1018.6 |
| 20260901115032 | 27 | 271 | 4.8 | 6.4 | 0.00 | 0.00 | 0.00 | 55 | 1018.4 |
| 20260901114528 | 27 | 192 | 4.8 | 4.8 | 0.00 | 0.00 | 0.00 | 55 | 1018.4 |
| 20260901114026 | 27 | 100 | 3.2 | 3.2 | 0.00 | 0.00 | 0.00 | 55 | 1018.4 |
| 20260901113525 | 27 | 200 | 4.8 | 4.8 | 0.00 | 0.00 | 0.00 | 55 | 1018.2 |
| 20260901113021 | 27 | 118 | 8.0 | 9.7 | 0.00 | 0.00 | 0.00 | 55 | 1018.2 |
| 20260901112516 | 27 | 183 | 4.8 | 6.4 | 0.00 | 0.00 | 0.00 | 54 | 1018.1 |
| 20260901112011 | 27 | 43 | 3.2 | 3.2 | 0.00 | 0.00 | 0.00 | 54 | 1018.1 |
| 20260901111509 | 27 | 135 | 3.2 | 3.2 | 0.00 | 0.00 | 0.00 | 54 | 1018.0 |
| 20260901111008 | 27 | 196 | 3.2 | 4.8 | 0.00 | 0.00 | 0.00 | 54 | 1017.8 |
| 20260901110504 | 27 | 48 | 1.6 | 3.2 | 0.00 | 0.00 | 0.00 | 54 | 1017.9 |
| 20260901105959 | 27 | 92 | 3.2 | 3.2 | 0.00 | 0.00 | 0.00 | 54 | 1017.8 |
| 20260901105455 | 27 | 224 | 3.2 | 4.8 | 0.00 | 0.00 | 0.00 | 54 | 1017.8 |
| 20260901104955 | 27 | 152 | 4.8 | 6.4 | 0.00 | 0.00 | 0.00 | 54 | 1017.9 |
| 20260901104451 | 27 | 86 | 4.8 | 6.4 | 0.00 | 0.00 | 0.00 | 54 | 1017.8 |
| 20260901103951 | 27 | 193 | 3.2 | 3.2 | 0.00 | 0.00 | 0.00 | 54 | 1017.6 |
| 20260901103446 | 27 | 177 | 4.8 | 4.8 | 0.00 | 0.00 | 0.00 | 55 | 1017.9 |
| 20260901102941 | 27 | 204 | 8.0 | 11.3 | 0.00 | 0.00 | 0.00 | 54 | 1017.6 |
| 20260901102436 | 27 | 121 | 6.4 | 6.4 | 0.00 | 0.00 | 0.00 | 55 | 1017.8 |
| 20260901101931 | 27 | 279 | 1.6 | 3.2 | 0.00 | 0.00 | 0.00 | 55 | 1017.6 |
| 20260901101426 | 27 | 105 | 6.4 | 11.3 | 0.00 | 0.00 | 0.00 | 55 | 1017.6 |
| 20260901100926 | 27 | 199 | 3.2 | 4.8 | 0.00 | 0.00 | 0.00 | 55 | 1017.6 |
| 20260901100420 | 27 | 86 | 3.2 | 3.2 | 0.00 | 0.00 | 0.00 | 55 | 1017.8 |
| 20260901095914 | 27 | 69 | 1.6 | 3.2 | 0.00 | 0.00 | 0.00 | 54 | 1017.6 |
| 20260901095413 | 27 | 265 | 3.2 | 3.2 | 0.00 | 0.00 | 0.00 | 54 | 1017.4 |
| 20260901094911 | 27 | 13 | 6.4 | 9.7 | 0.00 | 0.00 | 0.00 | 54 | 1017.4 |
| 20260901094406 | 27 | 136 | 8.0 | 14.5 | 0.00 | 0.00 | 0.00 | 54 | 1017.5 |
| 20260901093901 | 27 | 329 | 6.4 | 9.7 | 0.00 | 0.00 | 0.00 | 54 | 1017.5 |
| 20260901093400 | 27 | 8 | 1.6 | 3.2 | 0.00 | 0.00 | 0.00 | 55 | 1017.4 |
| 20260901092856 | 27 | 180 | 9.7 | 12.9 | 0.00 | 0.00 | 0.00 | 55 | 1017.3 |
| 20260901092356 | 27 | 115 | 6.4 | 6.4 | 0.00 | 0.00 | 0.00 | 55 | 1017.5 |
| 20260901091853 | 27 | 178 | 3.2 | 3.2 | 0.00 | 0.00 | 0.00 | 55 | 1017.2 |
| 20260901091352 | 27 | 161 | 8.0 | 9.7 | 0.00 | 0.00 | 0.00 | 55 | 1017.4 |
| 20260901090847 | 27 | 168 | 3.2 | 4.8 | 0.00 | 0.00 | 0.00 | 55 | 1017.2 |
| 20260901090342 | 27 | 40 | 3.2 | 3.2 | 0.00 | 0.00 | 0.00 | 55 | 1017.0 |
| 20260901085838 | 27 | 106 | 3.2 | 4.8 | 0.00 | 0.00 | 0.00 | 56 | 1017.1 |
| 20260901085333 | 27 | 216 | 4.8 | 6.4 | 0.00 | 0.00 | 0.00 | 56 | 1017.3 |
| 20260901084829 | 27 | 84 | 1.6 | 3.2 | 0.00 | 0.00 | 0.00 | 56 | 1017.3 |
| 20260901084325 | 27 | 37 | 1.6 | 3.2 | 0.00 | 0.00 | 0.00 | 56 | 1017.2 |
| 20260901083821 | 27 | 145 | 4.8 | 4.8 | 0.00 | 0.00 | 0.00 | 55 | 1017.1 |
| 20260901083320 | 27 | 49 | 0.0 | 1.6 | 0.00 | 0.00 | 0.00 | 55 | 1017.1 |
| 20260901082819 | 27 | 56 | 1.6 | 3.2 | 0.00 | 0.00 | 0.00 | 55 | 1017.1 |
| 20260901082314 | 27 | 38 | 3.2 | 3.2 | 0.00 | 0.00 | 0.00 | 55 | 1016.9 |
| 20260901081810 | 27 | 164 | 4.8 | 6.4 | 0.00 | 0.00 | 0.00 | 54 | 1017.1 |
| 20260901081309 | 27 | 72 | 6.4 | 9.7 | 0.00 | 0.00 | 0.00 | 54 | 1016.9 |
| 20260901080804 | 27 | 71 | 3.2 | 4.8 | 0.00 | 0.00 | 0.00 | 54 | 1017.0 |
| 20260901080305 | 27 | 196 | 8.0 | 9.7 | 0.00 | 0.00 | 0.00 | 54 | 1017.1 |
| 20260901075758 | 27 | 122 | 8.0 | 11.3 | 0.00 | 0.00 | 0.00 | 54 | 1016.9 |
| 20260901075254 | 27 | 138 | 4.8 | 6.4 | 0.00 | 0.00 | 0.00 | 54 | 1017.0 |
| 20260901074753 | 27 | 88 | 4.8 | 4.8 | 0.00 | 0.00 | 0.00 | 54 | 1016.8 |
| 20260901074248 | 27 | 39 | 3.2 | 4.8 | 0.00 | 0.00 | 0.00 | 53 | 1016.9 |
| 20260901073745 | 27 | 41 | 3.2 | 4.8 | 0.00 | 0.00 | 0.00 | 53 | 1017.0 |
| 20260901073240 | 27 | 41 | 3.2 | 4.8 | 0.00 | 0.00 | 0.00 | 53 | 1017.1 |
| 20260901072735 | 27 | 123 | 3.2 | 4.8 | 0.00 | 0.00 | 0.00 | 53 | 1017.0 |
| 20260901072230 | 27 | 84 | 6.4 | 9.7 | 0.00 | 0.00 | 0.00 | 52 | 1016.9 |
| 20260901071730 | 27 | 94 | 4.8 | 4.8 | 0.00 | 0.00 | 0.00 | 52 | 1016.9 |
| 20260901071230 | 27 | 73 | 1.6 | 1.6 | 0.00 | 0.00 | 0.00 | 52 | 1017.1 |
| 20260901070729 | 27 | 76 | 3.2 | 4.8 | 0.00 | 0.00 | 0.00 | 52 | 1017.2 |